Regional Weather Roundup
Issued by NWS

Home | Current Version | Previous Version | Graphics & Text | Print | Product List | Glossary On
Versions: 1 2 3 4 5 6 7 8 9 10 11 12 13 14 15 16 17 18 19 20 21 22 23 24 25 26 27 28 29 30 31 32 33 34 35 36 37 38 39 40 41 42 43 44 45 46 47 48 49 50
000
ASUS45 KTFX 192010
RWRMT
MONTANA REGIONAL WEATHER ROUNDUP
NATIONAL WEATHER SERVICE GREAT FALLS MT
200 PM MDT THU APR 19 2018

NOTE: "FAIR" INDICATES FEW OR NO CLOUDS BELOW 12000 FEET WITH NO
SIGNIFICANT WEATHER AND/OR OBSTRUCTIONS TO VISIBILITY.

MTZ001>007-043-192100-
WEST OF THE DIVIDE

CITY           SKY/WX    TMP DP  RH WIND       PRES   REMARKS
KALISPELL      FAIR      56  24  29 CALM      30.10F
MISSOULA       FAIR      59  27  29 NW9       30.06F
BUTTE          FAIR      53  20  27 S8        30.02F
MULLAN PASS    FAIR      47  19  33 VRB3      30.09F
ANACONDA         N/A     52  19  28 NE9       30.04F
DEER LODGE       N/A     52  21  30 N8        30.07S
HAMILTON         N/A     54  25  32 MISG      30.05F
PLAINS           N/A     59  28  30 MISG      30.09F
RONAN            N/A     52  25  35 VRB5G13   30.12F
$$

MTZ008-052>055-192100-
SOUTHWEST MONTANA

CITY           SKY/WX    TMP DP  RH WIND       PRES   REMARKS
BOZEMAN        FAIR      54  25  32 CALM      30.03F
DILLON         FAIR      49  24  37 MISG      30.02F
ENNIS          MOSUNNY   52  25  35 NW10G16   30.04F
W YELLOWSTONE  FAIR      48  12  23 VRB5G13   29.98F
THREE FORKS      N/A     55  25  31 SE2       30.02
TWIN BRIDGES     N/A     54  24  31 N15       30.00F
$$

MTZ009-010-012-014-046-048-049-054-192100-
EAST SLOPES AND CENTRAL MONTANA

CITY           SKY/WX    TMP DP  RH WIND       PRES   REMARKS
CUT BANK       FAIR      52  29  41 SE8       30.11F
GREAT FALLS    FAIR      54  28  36 NE7       30.09F
HELENA         FAIR      53  24  32 MISG      30.05F
AUGUSTA        FAIR      49  24  37 NE5       30.09F
BOWMANS CRNR   FAIR      49  26  40 NE5       30.07F
CHOTEAU          N/A     52  27  37 NE9       30.12F
FAIRFIELD      FAIR      52  27  37 E6        30.10F
POWER          FAIR      53  30  42 NW5       30.09F
RAYNESFORD     FAIR      54  27  34 W13G22    30.06F
ULM            FAIR      52  27  37 N6        30.09F
WHITE SULPHUR    N/A     50  25  37 W6G12     30.04F
$$

MTZ011-013-016-021-045-047-050-051-192100-
NORTH CENTRAL MONTANA

CITY           SKY/WX    TMP DP  RH WIND       PRES   REMARKS
HAVRE          FAIR      55  39  54 E22       30.13F
LEWISTOWN      FAIR      56  30  37 E21G30    30.08F
N BAR RANCH    FAIR      54  27  35 E14G21    30.13F
CHINOOK          N/A     48  37  66 MISG      30.17F
GEYSER         PTSUNNY   59  20  22 SE17      30.06F
GRASS RANGE    FAIR      56  31  38 SE10G23   30.08F
STANFORD       FAIR      56  22  26 SE17G25   30.06F
$$

MTZ017>020-022>027-061-062-192100-
NORTHEAST MONTANA

CITY           SKY/WX    TMP DP  RH WIND       PRES   REMARKS
GLASGOW        FAIR      55  38  52 E18       30.23F
GLENDIVE       FAIR      58  24  27 VRB6G20   30.24F
JORDAN           N/A     60  30  32 SE21G29   30.16F
MALTA          SUNNY     54  39  58 E13G21    30.18F
SIDNEY         FAIR      58  33  39 E8        30.30F
WOLF POINT     FAIR      56  39  53 E17       30.27F
PLENTYWOOD       N/A     43  41  93 E13       30.34F
POPLAR           N/A     54  37  54 MISG      30.29F
SCOBEY           N/A     48  33  56 E14       30.27F
$$

MTZ028>42-056>058-192100-
SOUTHCENTRAL AND SOUTHEAST MONTANA

CITY           SKY/WX    TMP DP  RH WIND       PRES   REMARKS
BAKER          FAIR      57  29  34 E17G25    30.24F
BILLINGS       PTSUNNY   59  29  31 SE13      30.06F
LIVINGSTON     FAIR      56  29  35 NE17      30.04F
MILES CITY     FAIR      62  31  31 SE17G30   30.16F
BIG TIMBER     SUNNY     55  25  30 SE15G21   30.07F
EKALAKA          N/A     58  25  28 E15       30.17F
FORSYTH          N/A     61  28  29 MISG      30.12F
HARLOWTON      FAIR      53  24  32 SE12      30.07F
LAUREL           N/A     59  25  27 NE10      30.06F
$$

REGIONAL REPORTS...DAKOTAS

CITY           SKY/WX    TMP DP  RH WIND       PRES   REMARKS
WILLISTON      FAIR      51  37  58 E8        30.35F
MINOT          CLOUDY    48  35  60 VRB5      30.38F
DICKINSON      FAIR      53  28  38 E6        30.29F
BEACH          FAIR      57  23  26 S15G24    30.29F
CROSBY         FAIR      48  34  57 SE12      30.37S
TIOGA          FAIR      45  45 100 E12       30.37S
WATFORD CITY   FAIR      52  34  50 SE8       30.33F
BISMARCK       FAIR      53  33  46 VRB5      30.38F
GRAND FORKS    FAIR      55  30  38 W6        30.39F
FARGO          FAIR      55  26  32 W8        30.41F
BUFFALO SD       N/A     57  26  30 SE16G26   30.18F
RAPID CITY     FAIR      57  33  40 SE20G28   30.24F
$$

REGIONAL REPORTS...WYOMING/IDAHO/WASHINGTON

CITY           SKY/WX    TMP DP  RH WIND       PRES   REMARKS
GILLETTE       FAIR      58  29  33 SE26G36   30.12F
SHERIDAN       FAIR      59  26  28 SE21G33   30.04F
BUFFALO WY     FAIR      56  24  29 S16       30.10F
CODY           FAIR      53  19  26 E8        30.05F
YELLOWSTONE LA   N/A     42   9  25 E6        30.06
IDAHO FALLS    PTSUNNY   59  19  21 NE10      29.91F
SALMON         FAIR      57  20  23 VRB3      29.98F
BOISE          FAIR      66  28  24 NW17G28   29.91F
SPOKANE        FAIR      57  27  31 CALM      30.13F
$$

REGIONAL REPORTS...ALBERTA

CITY           SKY/WX    TMP DP  RH WIND       PRES   REMARKS
CALGARY        MOSUNNY   48  28  46 SE14G20   30.09F
CARDSTON         N/A     52  30  43 SE5         N/A
EDMONTON       SUNNY     52  27  37 S13G21    30.09F
FORT MCMURRAY  SUNNY     55  23  28 SW22G31   30.02F
HIGH LEVEL     PTSUNNY   52  23  32 S6G20     29.78F
LETHBRIDGE     MOSUNNY   54  32  43 E6        30.11F
LLOYDMINSTER   MOSUNNY   50  34  53 S13       30.18F
MEDICINE HAT   MOSUNNY   61  21  21 S12G20    30.13F
MILK RIVER       N/A     54  32  43 SE13G18     N/A
PEACE RIVER    PTSUNNY   46  25  42 S13       29.97F
PINCHER CREEK  SUNNY     50  28  43 SE9       30.09F
WATERTON GATE    N/A     52  25  35 E7          N/A
$$

REGIONAL REPORTS...SASKATCHEWAN

CITY           SKY/WX    TMP DP  RH WIND       PRES   REMARKS
CORONACH         N/A     48  34  57 E14         N/A
CYPRESS HILLS    N/A     45  30  57 SE13        N/A
ESTEVAN        MOSUNNY   50  28  43 E13       30.37F
MOOSE JAW        N/A     52  32  46 SE15G21     N/A
PRINCE ALBERT  MOSUNNY   43  27  52 S7        30.32S
REGINA         PTSUNNY   41  36  81 SE16      30.36F
ROCKGLEN         N/A     48  34  57 SE12        N/A
SASKATOON      MOSUNNY   54  27  35 S17G23    30.30F
SWIFT CURRENT  SUNNY     54  36  50 SE17G25   30.22F
VAL MARIE        N/A     54  32  43 SE16G22     N/A
$$



USA.gov is the U.S. government's official web portal to all federal, state and local government web resources and services.